• In Netherlands
  • List of Countries
  • For 7 days
  • Water Temperature
  • Satellite Maps
  • Weather Map
  • Weather Widgets
  • user-avatar
    Login

    Hourly Weather Dhaka

    Today, 19 January, Friday

    Time Temperature Precipitation Wind Pressure Humidity
    00:00 +21°C° 0 mm 1 mps 759 mmHg 56%
    01:00 +19°C° 0 mm 2 mps 759 mmHg 56%
    02:00 +19°C° 0 mm 2 mps 759 mmHg 57%
    03:00 +18°C° 0 mm 2 mps 759 mmHg 57%
    04:00 +18°C° 0 mm 2 mps 759 mmHg 59%
    05:00 +18°C° 0 mm 2 mps 759 mmHg 60%
    06:00 +17°C° 0 mm 2 mps 759 mmHg 62%
    07:00 +19°C° 0 mm 2 mps 760 mmHg 58%
    08:00 +20°C° 0 mm 3 mps 760 mmHg 54%
    09:00 +22°C° 0 mm 3 mps 761 mmHg 50%
    10:00 +24°C° 0 mm 3 mps 760 mmHg 46%
    11:00 +26°C° 0 mm 3 mps 760 mmHg 42%
    12:00 +27°C° 0 mm 3 mps 760 mmHg 38%
    13:00 +28°C° 0 mm 2 mps 759 mmHg 36%
    14:00 +28°C° 0 mm 2 mps 758 mmHg 33%
    15:00 +28°C° 0 mm 2 mps 758 mmHg 31%
    16:00 +27°C° 0 mm 2 mps 758 mmHg 34%
    17:00 +25°C° 0 mm 2 mps 758 mmHg 37%
    18:00 +24°C° 0 mm 2 mps 758 mmHg 40%
    19:00 +23°C° 0 mm 2 mps 758 mmHg 40%
    20:00 +23°C° 0 mm 2 mps 758 mmHg 41%
    21:00 +21°C° 0 mm 2 mps 759 mmHg 42%
    22:00 +20°C° 0 mm 2 mps 759 mmHg 43%
    23:00 +20°C° 0 mm 2 mps 759 mmHg 44%

    Tomorrow, 20 January, Saturday

    Time Temperature Precipitation Wind Pressure Humidity
    00:00 +19°C° 0 mm 2 mps 759 mmHg 45%
    01:00 +19°C° 0 mm 2 mps 759 mmHg 47%
    02:00 +18°C° 0 mm 2 mps 758 mmHg 48%
    03:00 +18°C° 0 mm 2 mps 758 mmHg 49%
    04:00 +17°C° 0 mm 2 mps 758 mmHg 50%
    05:00 +18°C° 0 mm 1 mps 758 mmHg 52%
    06:00 +16°C° 0 mm 1 mps 758 mmHg 53%
    07:00 +19°C° 0 mm 1 mps 758 mmHg 49%
    08:00 +20°C° 0 mm 1 mps 759 mmHg 46%
    09:00 +21°C° 0 mm 2 mps 759 mmHg 43%
    10:00 +23°C° 0 mm 2 mps 759 mmHg 39%
    11:00 +25°C° 0 mm 2 mps 759 mmHg 35%
    12:00 +26°C° 0 mm 2 mps 759 mmHg 31%
    13:00 +27°C° 0 mm 2 mps 758 mmHg 30%
    14:00 +27°C° 0 mm 2 mps 757 mmHg 29%
    15:00 +28°C° 0 mm 2 mps 756 mmHg 27%
    16:00 +26°C° 0 mm 2 mps 756 mmHg 30%
    17:00 +25°C° 0 mm 2 mps 756 mmHg 33%
    18:00 +23°C° 0 mm 1 mps 756 mmHg 36%
    19:00 +23°C° 0 mm 1 mps 757 mmHg 38%
    20:00 +22°C° 0 mm 1 mps 757 mmHg 39%
    21:00 +21°C° 0 mm 1 mps 758 mmHg 41%
    22:00 +21°C° 0 mm 1 mps 758 mmHg 42%
    23:00 +20°C° 0 mm 1 mps 758 mmHg 43%

    Day after tomorrow, 21 January, Sunday

    Time Temperature Precipitation Wind Pressure Humidity
    00:00 +20°C° 0 mm 1 mps 758 mmHg 44%
    01:00 +20°C° 0 mm 1 mps 758 mmHg 45%
    02:00 +19°C° 0 mm 1 mps 758 mmHg 46%
    03:00 +19°C° 0 mm 1 mps 757 mmHg 47%
    04:00 +18°C° 0 mm 1 mps 757 mmHg 49%
    05:00 +18°C° 0 mm 1 mps 758 mmHg 50%
    06:00 +16°C° 0 mm 1 mps 758 mmHg 52%
    07:00 +19°C° 0 mm 1 mps 759 mmHg 49%
    08:00 +21°C° 0 mm 1 mps 759 mmHg 46%
    09:00 +21°C° 0 mm 2 mps 760 mmHg 43%
    10:00 +24°C° 0 mm 2 mps 760 mmHg 39%
    11:00 +25°C° 0 mm 2 mps 759 mmHg 35%
    12:00 +27°C° 0 mm 2 mps 759 mmHg 31%
    13:00 +27°C° 0 mm 2 mps 758 mmHg 29%
    14:00 +28°C° 0 mm 2 mps 757 mmHg 28%
    15:00 +28°C° 0 mm 2 mps 756 mmHg 27%
    16:00 +27°C° 0 mm 2 mps 756 mmHg 30%
    17:00 +25°C° 0 mm 2 mps 756 mmHg 33%
    18:00 +24°C° 0 mm 2 mps 756 mmHg 36%
    19:00 +23°C° 0 mm 2 mps 757 mmHg 38%
    20:00 +21°C° 0 mm 2 mps 757 mmHg 39%
    21:00 +21°C° 0 mm 2 mps 758 mmHg 41%
    22:00 +21°C° 0 mm 1 mps 758 mmHg 43%
    23:00 +21°C° 0 mm 1 mps 757 mmHg 44%

    22 January, Monday

    Time Temperature Precipitation Wind Pressure Humidity
    00:00 +20°C° 0 mm 1 mps 757 mmHg 45%
    01:00 +20°C° 0 mm 1 mps 757 mmHg 47%
    02:00 +20°C° 0 mm 1 mps 757 mmHg 49%
    03:00 +18°C° 0 mm 2 mps 757 mmHg 51%
    04:00 +19°C° 0 mm 1 mps 757 mmHg 53%
    05:00 +18°C° 0 mm 1 mps 757 mmHg 55%
    06:00 +18°C° 0 mm 1 mps 757 mmHg 57%
    07:00 +19°C° 0 mm 2 mps 758 mmHg 54%
    08:00 +20°C° 0 mm 2 mps 758 mmHg 52%
    09:00 +23°C° 0 mm 2 mps 759 mmHg 49%
    10:00 +24°C° 0 mm 2 mps 759 mmHg 45%
    11:00 +26°C° 0 mm 2 mps 758 mmHg 41%
    12:00 +27°C° 0 mm 3 mps 758 mmHg 37%
    13:00 +28°C° 0 mm 3 mps 757 mmHg 34%
    14:00 +28°C° 0 mm 2 mps 756 mmHg 32%
    15:00 +29°C° 0 mm 2 mps 755 mmHg 30%
    16:00 +27°C° 0 mm 2 mps 755 mmHg 33%
    17:00 +26°C° 0 mm 2 mps 755 mmHg 36%
    18:00 +24°C° 0 mm 1 mps 756 mmHg 39%
    19:00 +24°C° 0 mm 1 mps 756 mmHg 41%
    20:00 +23°C° 0 mm 1 mps 757 mmHg 42%
    21:00 +22°C° 0 mm 1 mps 757 mmHg 44%
    22:00 +22°C° 0 mm 1 mps 757 mmHg 45%
    23:00 +21°C° 0 mm 1 mps 757 mmHg 46%

    23 January, Tuesday

    Time Temperature Precipitation Wind Pressure Humidity
    00:00 +21°C° 0 mm 1 mps 757 mmHg 48%
    01:00 +20°C° 0 mm 1 mps 757 mmHg 49%
    02:00 +20°C° 0 mm 1 mps 757 mmHg 50%
    03:00 +20°C° 0 mm 1 mps 756 mmHg 51%
    04:00 +19°C° 0 mm 1 mps 757 mmHg 53%
    05:00 +19°C° 0 mm 1 mps 757 mmHg 55%
    06:00 +18°C° 0 mm 1 mps 757 mmHg 56%
    07:00 +20°C° 0 mm 1 mps 758 mmHg 53%
    08:00 +20°C° 0 mm 2 mps 758 mmHg 50%
    09:00 +23°C° 0 mm 2 mps 759 mmHg 47%
    10:00 +25°C° 0 mm 2 mps 758 mmHg 44%
    11:00 +26°C° 0 mm 2 mps 758 mmHg 40%
    12:00 +28°C° 0 mm 2 mps 757 mmHg 37%
    13:00 +28°C° 0 mm 2 mps 756 mmHg 34%
    14:00 +29°C° 0 mm 2 mps 756 mmHg 31%
    15:00 +29°C° 0 mm 2 mps 755 mmHg 29%
    16:00 +28°C° 0 mm 2 mps 755 mmHg 31%
    17:00 +26°C° 0 mm 2 mps 755 mmHg 33%
    18:00 +25°C° 0 mm 1 mps 755 mmHg 35%
    19:00 +24°C° 0 mm 1 mps 755 mmHg 35%
    20:00 +23°C° 0 mm 1 mps 756 mmHg 36%
    21:00 +22°C° 0 mm 1 mps 756 mmHg 36%
    22:00 +22°C° 0 mm 1 mps 756 mmHg 37%
    23:00 +22°C° 0 mm 1 mps 756 mmHg 37%

    24 January, Wednesday

    Time Temperature Precipitation Wind Pressure Humidity
    00:00 +21°C° 0 mm 1 mps 756 mmHg 38%
    01:00 +21°C° 0 mm 1 mps 756 mmHg 38%
    02:00 +20°C° 0 mm 1 mps 756 mmHg 39%
    03:00 +20°C° 0 mm 1 mps 756 mmHg 40%
    04:00 +19°C° 0 mm 1 mps 756 mmHg 42%
    05:00 +19°C° 0 mm 1 mps 756 mmHg 45%
    06:00 +18°C° 0 mm 1 mps 756 mmHg 47%
    07:00 +20°C° 0 mm 1 mps 756 mmHg 44%
    08:00 +22°C° 0 mm 1 mps 757 mmHg 42%
    09:00 +23°C° 0 mm 1 mps 757 mmHg 40%
    10:00 +25°C° 0 mm 1 mps 757 mmHg 35%
    11:00 +27°C° 0 mm 1 mps 756 mmHg 31%
    12:00 +26°C° 0 mm 0 mps 756 mmHg 27%
    13:00 +29°C° 0 mm 1 mps 755 mmHg 25%
    14:00 +29°C° 0 mm 1 mps 754 mmHg 24%
    15:00 +30°C° 0 mm 1 mps 754 mmHg 22%
    16:00 +28°C° 0 mm 1 mps 754 mmHg 24%
    17:00 +27°C° 0 mm 1 mps 754 mmHg 26%
    18:00 +23°C° 0 mm 0 mps 754 mmHg 29%
    19:00 +25°C° 0 mm 1 mps 754 mmHg 30%
    20:00 +24°C° 0 mm 1 mps 754 mmHg 31%
    21:00 +24°C° 0 mm 1 mps 754 mmHg 31%
    22:00 +23°C° 0 mm 2 mps 755 mmHg 33%
    23:00 +23°C° 0 mm 2 mps 755 mmHg 34%
    Show more